User: anonymous   Login
Location: Unspecified
(0.0000°N, 0.0000°E)
Time: 04:15:25
(UTC+00:00)
Language:

STARLINK-2575 - Orbit

View from above orbital plane
View from above orbital plane
View from above satellite
View from above satellite

Ground track
Ground track

The orbit is defined by the following mean orbital elements,

1 48396U          26145.52863270 +.00000000 +00000-0 +21399-4 0 00002
2 48396  53.1601 335.1288 0001510  85.3862 274.7312 15.31704864    02
Epoch (UTC): 25 May 2026 12:41:13
Eccentricity: 0.0001510
inclination: 53.1601°
perigee height: 470 km
apogee height: 472 km
right ascension of ascending node: 335.1288°
argument of perigee: 85.3862°
revolutions per day: 15.31704864
mean anomaly at epoch: 274.7312°

The dashed part of the orbit path shows where the satellite is in the earth's shadow,  

DLR